Regional Weather Roundup
Issued by NWS

Home | Current Version | Previous Version | Text Only | Print | Product List | Glossary Off
Versions: 1 2 3 4 5 6 7 8 9 10 11 12 13 14 15 16 17 18 19 20 21 22 23 24 25 26 27 28 29 30 31 32 33 34 35 36 37 38 39 40 41 42 43 44 45 46 47 48 49 50

439
ASUS43 KBIS 060510
RWRND

NORTH DAKOTA REGIONAL WEATHER ROUNDUP
NATIONAL WEATHER SERVICE BISMARCK ND
1100 PM CST FRI FEB 05 2016

NOTE: "FAIR" INDICATES FEW OR NO CLOUDS BELOW 12,000 FEET WITH NO
SIGNIFICANT WEATHER AND/OR OBSTRUCTIONS TO VISIBILITY.


NDZ001>003-009>011-017-060600-
NORTHWEST NORTH DAKOTA

CITY           SKY/WX    TMP DP  RH WIND       PRES   REMARKS
WILLISTON      CLOUDY    28  23  81 S3        29.94F
MINOT          CLOUDY    34  22  61 S12       29.93F
MINOT AFB      CLOUDY    27  26  94 CALM      29.92F
$$

NDZ018>021-031>035-040>046-060600-
SOUTHWEST NORTH DAKOTA

CITY           SKY/WX    TMP DP  RH WIND       PRES   REMARKS
BISMARCK       CLEAR     28  21  75 CALM      30.04F
DICKINSON      CLOUDY    30  21  69 SW12      29.97F
GARRISON         N/A     24  20  84 S5        29.98F WCI  18
HETTINGER ARPT CLOUDY    26  19  74 W6        30.06F WCI  19
$$

NDZ004>008-012>016-024-026-027-054-060600-
NORTHEAST NORTH DAKOTA

CITY           SKY/WX    TMP DP  RH WIND       PRES   REMARKS
GRAND FORKS    PTCLDY    21  16  81 S8        30.06F WCI  11
GRND FRKS AFB  CLOUDY    21  17  85 SW7       30.04F WCI  12
DEVILS LAKE    PTCLDY    24  20  84 SW8       30.00F WCI  15
$$

NDZ022-023-025-028>030-036>039-047>053-060600-
SOUTHEAST NORTH DAKOTA

CITY           SKY/WX    TMP DP  RH WIND       PRES   REMARKS
FARGO          CLOUDY    21  17  84 S8        30.10F WCI  11
JAMESTOWN      CLOUDY    21  17  84 SW6       30.04F WCI  13
$$





USA.gov is the U.S. government's official web portal to all federal, state and local government web resources and services.